[[{"header":{"parameterUnit":"m.s-1","parameterCategory":1,"la1":30.2991,"la2":30.254,"lo1":-89.0895,"lo2":-89.0444,"dy":0.0017,"dx":0.0017,"nx":28,"ny":28,"refTime":"2025-12-22T03:00:00:Z","depth":0,"parameterNumber":2,"parameterNumberName":"U-component_of_WINDS"},"data":[0,0,0,0,0,0,0,0,0,0,0,0,0,0,0,0,0,0,0,0,0,0,0,0,0,0,0,0,0,0,0,0,0,0,0,0,0,0,0,0,0,0,0,0,0,0,0,0,0,0,0,0,0,0,0,0,0,0,-3.4862,-3.4862,0,-3.4893,-3.4894,-3.4894,-3.4819,-3.4817,-3.4815,-3.4813,-3.4848,-3.4851,-3.4854,0,0,0,0,0,0,0,0,0,0,0,0,0,-3.4742,-3.4744,-3.4862,-3.4862,-3.4863,-3.4893,-3.4894,-3.4894,-3.482,-3.4817,-3.4814,-3.4811,-3.4847,-3.4851,-3.4855,0,0,0,0,0,0,0,0,0,0,0,0,0,-3.4786,-3.4745,-3.4862,-3.4829,-3.4827,-3.4893,-3.4894,-3.4894,-3.4821,-3.4817,-3.4813,-3.481,-3.4846,-3.485,-3.4855,-3.4956,0,0,-3.487,-3.4872,0,0,0,0,0,0,0,0,-3.4783,-3.479,-3.4834,-3.4832,-3.4829,-3.4849,-3.4864,-3.4915,-3.4821,-3.4823,-3.4812,-3.4808,-3.4851,-3.4855,-3.4869,-3.4957,-3.4959,-3.487,-3.4873,-3.4875,-3.4876,0,0,0,0,0,0,0,-3.478,-3.4789,-3.4874,-3.4834,-3.4832,-3.4814,-3.4817,-3.4874,-3.4857,-3.4823,-3.4817,-3.4822,-3.4849,-3.4865,-3.487,-3.4959,-3.487,-3.4874,-3.4877,-3.4879,-3.5132,-3.5136,0,0,0,0,0,0,-3.4781,-3.4787,-3.4873,-3.4875,-3.4797,-3.482,-3.4822,-3.4846,-3.4856,-3.4854,-3.4825,-3.4818,-3.4859,-3.4864,-3.4871,-3.4989,-3.4875,-3.4879,-3.4882,-3.5129,-3.5133,-3.5137,0,0,0,0,0,0,-3.4779,-3.479,-3.4872,-3.483,-3.4839,-3.4825,-3.4853,-3.4849,-3.4864,-3.4858,-3.4855,-3.4843,-3.4856,-3.4864,-3.4935,-3.4989,-3.4881,-3.4886,-3.5124,-3.513,-3.5135,-3.5227,0,0,0,0,0,0,-3.4776,-3.4789,-3.4826,-3.4831,-3.4841,-3.4935,-3.4856,-3.4852,-3.4872,-3.4863,-3.4874,-3.4873,-3.4854,-3.4928,-3.494,-3.4994,-3.4889,-3.5119,-3.5127,-3.5133,-3.5219,-3.5235,-3.5249,0,0,0,0,0,-3.4772,-3.4851,-3.4828,-3.4839,-3.4887,-3.4938,-3.4944,-3.492,-3.4876,-3.4914,-3.491,-3.4872,-3.4982,-3.4936,-3.4948,-3.5005,-3.5115,-3.5124,-3.5133,-3.5212,-3.5232,-3.5249,0,0,0,0,0,0,-3.4854,-3.4851,-3.4826,-3.4909,-3.4924,-3.4926,-3.4972,-3.4942,-3.497,-3.4961,-3.4931,-3.4934,-3.5011,-3.5015,-3.4965,-3.5103,-3.5041,-3.5053,-3.5097,-3.5116,-3.5131,-3.5128,-3.4893,0,0,0,0,0,-3.4882,-3.4923,-3.4918,-3.4992,-3.5001,-3.4986,-3.5007,-3.4987,-3.5002,-3.5009,-3.501,-3.5027,-3.5065,-3.5091,-3.5126,-3.522,-3.5221,-3.5265,-3.528,-3.5292,-3.5302,-3.5353,-3.5372,-3.5166,-3.5166,-3.5166,0,0,-3.494,-3.4943,-3.4971,-3.5009,-3.5018,-3.5062,-3.4992,-3.5041,-3.5074,-3.5016,-3.5083,-3.5085,-3.5102,-3.5186,-3.5222,-3.5191,-3.536,-3.5303,-3.5313,-3.5317,-3.5364,-3.5384,-3.5401,-3.5172,-3.5171,-3.517,0,0,-3.5068,-3.5074,-3.5137,-3.5148,-3.5163,-3.5152,-3.5167,-3.5174,-3.5172,-3.5239,-3.5197,-3.5236,-3.5303,-3.5317,-3.5333,-3.5468,-3.5434,-3.548,-3.5558,-3.5608,-3.5624,-3.5639,-3.5687,-3.5705,-3.549,-3.5491,-3.5491,0,-3.5138,-3.5201,-3.5173,-3.5225,-3.5244,-3.5193,-3.5257,-3.527,-3.5296,-3.5311,-3.5275,-3.5358,-3.5366,-3.5452,-3.5485,-3.5499,-3.5517,-3.5478,-3.5624,-3.5638,-3.5651,-3.5697,-3.5715,-3.5496,-3.5496,-3.5495,-3.5494,0,-3.5287,-3.5332,-3.5381,-3.5407,-3.5431,-3.5489,-3.5471,-3.5499,-3.5477,-3.5471,-3.554,-3.5548,-3.5584,-3.5603,-3.5583,-3.5687,-3.5667,-3.5629,-3.5566,-3.5677,-3.5719,-3.5737,-3.5504,-3.5502,-3.55,-3.5499,0,0,-3.5466,-3.5476,-3.5495,-3.5506,-3.552,-3.5555,-3.5611,-3.5645,-3.567,-3.5691,-3.5738,-3.5796,-3.5761,-3.5779,-3.576,-3.5804,-3.5911,-3.576,-3.576,-3.5788,-3.6027,-3.6056,-3.6076,-3.5889,-3.5892,-3.5895,-3.6025,0,-3.5592,-3.5688,-3.5665,-3.576,-3.5802,-3.5755,-3.5805,-3.582,-3.5816,-3.5852,-3.5848,-3.5889,-3.5839,-3.585,-3.5891,-3.5889,-3.5959,-3.588,-3.5934,-3.5936,-3.593,-3.6098,-3.6129,-3.6251,-3.6042,-3.6045,-3.6047,0,-3.5752,-3.5778,-3.5877,-3.5885,-3.5901,-3.5946,-3.5976,-3.6011,-3.6027,-3.6021,-3.6042,-3.6015,-3.6073,-3.601,-3.6089,-3.6036,-3.6057,-3.606,-3.6064,-3.6068,-3.5998,-3.6107,-3.629,-3.6308,-3.6073,-3.6071,-3.6069,0,-3.5873,-3.5933,-3.5999,-3.6011,-3.6022,-3.6054,-3.6061,-3.6073,-3.6096,-3.6123,-3.6137,-3.6171,-3.619,-3.6217,-3.6201,-3.6156,-3.6283,-3.6219,-3.6281,-3.6281,-3.6309,-3.6307,-3.6498,-3.6324,-3.6323,-3.6323,-3.6323,0,-3.6016,-3.6078,-3.6054,-3.6095,-3.6165,-3.6139,-3.6208,-3.6209,-3.6221,-3.6263,-3.6226,-3.6266,-3.6242,-3.6281,-3.6269,-3.6337,-3.6345,-3.6343,-3.6339,-3.6346,-3.6347,-3.6359,-3.635,-3.6328,-3.6327,-3.6326,-3.6325,0,-3.6161,-3.6148,-3.6218,-3.6223,-3.6225,-3.6276,-3.6281,-3.632,-3.6314,-3.6367,-3.6378,-3.6369,-3.6413,-3.64,-3.6447,-3.6439,-3.6525,-3.6511,-3.652,-3.6516,-3.6578,-3.6573,-3.6783,-3.681,-3.6619,-3.6621,-3.6622,0,-3.6253,-3.63,-3.631,-3.6335,-3.6344,-3.6384,-3.6407,-3.6384,-3.6409,-3.6432,-3.6469,-3.651,-3.6541,-3.6613,-3.6612,-3.6648,-3.6634,-3.6706,-3.6639,-3.6645,-3.6635,-3.6632,-3.6637,-3.6719,-3.6721,-3.6723,-3.6724,0,-3.6417,-3.6409,-3.6442,-3.6474,-3.6502,-3.6526,-3.6547,-3.657,-3.6549,-3.6579,-3.6623,-3.6647,-3.6696,-3.6737,-3.6771,-3.6778,-3.6749,-3.6745,-3.6761,-3.6769,-3.6772,-3.6771,-3.6555,-3.674,-3.6738,-3.6737,-3.6736,-3.6736,-3.6539,-3.6579,-3.6592,-3.6631,-3.6644,-3.6665,-3.6702,-3.6701,-3.6737,-3.6774,-3.6759,-3.681,-3.6827,-3.6868,-3.6881,-3.6921,-3.6894,-3.6918,-3.6924,-3.693,-3.6938,-3.6766,-3.6928,-3.6927,-3.6927,-3.6926,-3.6926,0,-3.6701,-3.6708,-3.6744,-3.6774,-3.6805,-3.6774,-3.6796,-3.6824,-3.6869,-3.6887,-3.6918,-3.697,-3.701,-3.7012,-3.705,-3.7082,-3.7069,-3.7093,-3.709,-3.7092,-3.696,-3.6942,-3.7102,-3.7102,-3.7102,-3.7102,-3.7102,-3.7102,-3.6789,-3.6855,-3.6848,-3.6921,-3.6927,-3.6976,-3.6992,-3.7011,-3.7025,-3.7084,-3.7117,-3.7118,-3.713,-3.7168,-3.7204,-3.7204,-3.722,-3.7249,-3.7243,-3.7119,-3.7102,-3.7085,-3.7068,-3.7252,-3.7252,-3.7372,-3.7373,-3.7374]},{"header":{"parameterUnit":"m.s-1","parameterCategory":1,"la1":30.2991,"la2":30.254,"lo1":-89.0895,"lo2":-89.0444,"dy":0.0017,"dx":0.0017,"nx":28,"ny":28,"refTime":"2025-12-22T03:00:00:Z","depth":0,"parameterNumber":3,"parameterNumberName":"V-component_of_WINDS"},"data":[0,0,0,0,0,0,0,0,0,0,0,0,0,0,0,0,0,0,0,0,0,0,0,0,0,0,0,0,0,0,0,0,0,0,0,0,0,0,0,0,0,0,0,0,0,0,0,0,0,0,0,0,0,0,0,0,0,0,0.6749,0.675,0,0.6812,0.6812,0.6813,0.6833,0.6832,0.6832,0.6832,0.6898,0.69,0.6902,0,0,0,0,0,0,0,0,0,0,0,0,0,0.6649,0.6651,0.6749,0.675,0.675,0.6811,0.6812,0.6813,0.6833,0.6832,0.6832,0.6832,0.6897,0.6899,0.6902,0,0,0,0,0,0,0,0,0,0,0,0,0,0.67,0.6652,0.6749,0.6767,0.677,0.6811,0.6812,0.6813,0.6833,0.6832,0.6832,0.6831,0.6896,0.6899,0.6902,0.693,0,0,0.6911,0.6913,0,0,0,0,0,0,0,0,0.6698,0.6704,0.6764,0.6766,0.6769,0.6814,0.6801,0.6853,0.6833,0.6809,0.6832,0.6831,0.687,0.6875,0.6888,0.6933,0.6936,0.6912,0.6914,0.6915,0.6916,0,0,0,0,0,0,0,0.6694,0.6702,0.6774,0.6765,0.6768,0.6774,0.6781,0.6811,0.6841,0.6811,0.6812,0.682,0.6871,0.6885,0.689,0.6937,0.6912,0.6914,0.6916,0.6917,0.7011,0.7012,0,0,0,0,0,0,0.6687,0.6698,0.6772,0.6776,0.6731,0.6776,0.6784,0.68,0.6841,0.6847,0.682,0.682,0.688,0.6886,0.6892,0.693,0.6915,0.6918,0.6919,0.701,0.7011,0.7012,0,0,0,0,0,0,0.6685,0.6693,0.6769,0.6738,0.6748,0.6778,0.6796,0.6801,0.6815,0.6848,0.6854,0.6828,0.688,0.6888,0.6921,0.6932,0.6919,0.6922,0.701,0.7011,0.7011,0.7003,0,0,0,0,0,0,0.6682,0.6692,0.6702,0.6738,0.6749,0.6796,0.6797,0.6803,0.682,0.6821,0.6857,0.6863,0.688,0.6916,0.6924,0.6936,0.6924,0.7009,0.701,0.7011,0.7002,0.7004,0.7004,0,0,0,0,0,0.6678,0.6697,0.6703,0.6711,0.6762,0.6796,0.6803,0.6823,0.6821,0.6832,0.6853,0.6861,0.6929,0.692,0.6928,0.6941,0.7008,0.701,0.7011,0.7002,0.7003,0.7004,0,0,0,0,0,0,0.6662,0.6702,0.6708,0.6739,0.6764,0.68,0.6814,0.6823,0.6849,0.6849,0.6873,0.6881,0.6913,0.693,0.6919,0.6972,0.6969,0.6973,0.6959,0.6961,0.6962,0.6957,0.6927,0,0,0,0,0,0.6662,0.6686,0.672,0.6744,0.6756,0.6783,0.6798,0.6811,0.6838,0.6849,0.6873,0.69,0.6928,0.6945,0.6972,0.7005,0.7014,0.7019,0.702,0.702,0.7023,0.7044,0.7047,0.7017,0.7017,0.7017,0,0,0.6662,0.6687,0.6701,0.6741,0.6762,0.6787,0.6791,0.6817,0.6837,0.6853,0.6886,0.6905,0.6937,0.697,0.6986,0.6986,0.7034,0.7022,0.7022,0.7025,0.7046,0.7049,0.7052,0.7018,0.7017,0.7017,0,0,0.6676,0.6696,0.672,0.6741,0.6773,0.6791,0.6797,0.6831,0.6844,0.6878,0.6891,0.6915,0.6962,0.6985,0.7002,0.7027,0.7036,0.7035,0.7041,0.7061,0.7064,0.7066,0.7077,0.708,0.7038,0.7038,0.7038,0,0.6673,0.671,0.6731,0.6757,0.6775,0.6791,0.6816,0.6836,0.6875,0.6888,0.6887,0.6947,0.697,0.701,0.7016,0.7029,0.7038,0.7031,0.7062,0.7064,0.7067,0.7077,0.7081,0.7038,0.7038,0.7038,0.7038,0,0.6706,0.6732,0.6747,0.6785,0.6805,0.683,0.6855,0.6874,0.6886,0.6904,0.694,0.6967,0.7001,0.7012,0.7023,0.7055,0.7054,0.7057,0.7055,0.7069,0.7079,0.7083,0.7037,0.7037,0.7038,0.7038,0,0,0.6709,0.676,0.6765,0.6783,0.6821,0.6842,0.6869,0.6903,0.6919,0.6946,0.697,0.701,0.7014,0.7034,0.7049,0.7067,0.7087,0.7068,0.7069,0.7072,0.7126,0.7124,0.7128,0.7094,0.7094,0.7095,0.7124,0,0.6729,0.6777,0.6797,0.6837,0.6862,0.688,0.6904,0.693,0.6949,0.6975,0.6996,0.7025,0.7026,0.7039,0.7057,0.7081,0.7099,0.7079,0.7118,0.7119,0.711,0.7133,0.7131,0.7157,0.7128,0.7129,0.7129,0,0.6757,0.6785,0.6827,0.6864,0.6876,0.6896,0.693,0.6954,0.6985,0.6998,0.7021,0.7036,0.7067,0.7062,0.7106,0.7093,0.711,0.7124,0.7126,0.7131,0.7125,0.714,0.7165,0.717,0.7135,0.7135,0.7134,0,0.6758,0.6806,0.6838,0.6853,0.6896,0.6911,0.693,0.6961,0.698,0.701,0.7023,0.7056,0.7074,0.71,0.7124,0.7118,0.7167,0.7164,0.7179,0.7179,0.7189,0.7188,0.7218,0.7198,0.7198,0.7198,0.7198,0,0.6777,0.6803,0.6839,0.6858,0.6888,0.6913,0.6942,0.6962,0.699,0.7015,0.7032,0.7056,0.7085,0.7113,0.7131,0.7166,0.7174,0.7187,0.7191,0.7186,0.7184,0.7198,0.7197,0.7199,0.7199,0.7199,0.7199,0,0.6782,0.6807,0.6844,0.6883,0.6893,0.6914,0.6947,0.6968,0.6989,0.7021,0.703,0.7062,0.7096,0.7122,0.7166,0.7179,0.7216,0.7221,0.7206,0.7208,0.7223,0.7222,0.7264,0.7271,0.7245,0.7245,0.7246,0,0.6794,0.6814,0.6855,0.6873,0.6892,0.6921,0.6942,0.6967,0.6988,0.7027,0.7043,0.7079,0.7108,0.7162,0.719,0.7224,0.7231,0.7243,0.7236,0.723,0.7233,0.7232,0.7235,0.7244,0.7244,0.7244,0.7245,0,0.6811,0.6823,0.6852,0.6886,0.691,0.6938,0.6966,0.698,0.7011,0.7034,0.7069,0.7092,0.7138,0.7173,0.7211,0.7232,0.7244,0.7247,0.7253,0.7247,0.7238,0.7245,0.7209,0.7246,0.7245,0.7245,0.7245,0.7245,0.6821,0.684,0.6873,0.6906,0.693,0.6957,0.6979,0.7003,0.7032,0.7071,0.7085,0.7122,0.7156,0.7208,0.7229,0.7259,0.726,0.7267,0.727,0.7272,0.7272,0.7233,0.7266,0.7266,0.7266,0.7266,0.7266,0,0.6841,0.6863,0.6893,0.6932,0.6958,0.6967,0.7,0.7021,0.7053,0.7084,0.7113,0.7155,0.719,0.7222,0.7259,0.7277,0.7284,0.7286,0.7285,0.7291,0.7268,0.726,0.728,0.728,0.728,0.728,0.728,0.728,0.6854,0.6888,0.6905,0.6953,0.6976,0.7012,0.703,0.7055,0.708,0.7126,0.7155,0.7176,0.7208,0.7248,0.7281,0.729,0.7303,0.7305,0.7315,0.7294,0.7292,0.729,0.7283,0.7307,0.7307,0.7335,0.7335,0.7335]}]]